owner,sensor,date,latitude,longitude,vertical_datum,sea_water_temperature,qcFlag 
ENP,ioos.station.NOAA.NDBC:WPLF1:1,2016-02-01T16:00:00Z,25.7100,-81.2490,1.0,20.12,2 
ENP,ioos.station.NOAA.NDBC:WPLF1:1,2016-02-01T17:00:00Z,25.7100,-81.2490,1.0,20.17,2 
ENP,ioos.station.NOAA.NDBC:WPLF1:1,2016-02-01T18:00:00Z,25.7100,-81.2490,1.0,20.26,2 
ENP,ioos.station.NOAA.NDBC:WPLF1:1,2016-02-01T19:00:00Z,25.7100,-81.2490,1.0,20.42,2 
ENP,ioos.station.NOAA.NDBC:WPLF1:1,2016-02-01T20:00:00Z,25.7100,-81.2490,1.0,20.59,2 
ENP,ioos.station.NOAA.NDBC:WPLF1:1,2016-02-01T21:00:00Z,25.7100,-81.2490,1.0,20.9,2 
ENP,ioos.station.NOAA.NDBC:WPLF1:1,2016-02-01T22:00:00Z,25.7100,-81.2490,1.0,21.18,2 
ENP,ioos.station.NOAA.NDBC:WPLF1:1,2016-02-01T23:00:00Z,25.7100,-81.2490,1.0,21.31,2 
ENP,ioos.station.NOAA.NDBC:WPLF1:1,2016-02-02T00:00:00Z,25.7100,-81.2490,1.0,21.33,2 
ENP,ioos.station.NOAA.NDBC:WPLF1:1,2016-02-02T01:00:00Z,25.7100,-81.2490,1.0,21.25,2 
ENP,ioos.station.NOAA.NDBC:WPLF1:1,2016-02-02T02:00:00Z,25.7100,-81.2490,1.0,21.22,2 
ENP,ioos.station.NOAA.NDBC:WPLF1:1,2016-02-02T03:00:00Z,25.7100,-81.2490,1.0,21.23,2 
ENP,ioos.station.NOAA.NDBC:WPLF1:1,2016-02-02T04:00:00Z,25.7100,-81.2490,1.0,21.18,2 
ENP,ioos.station.NOAA.NDBC:WPLF1:1,2016-02-02T05:00:00Z,25.7100,-81.2490,1.0,21.14,2 
ENP,ioos.station.NOAA.NDBC:WPLF1:1,2016-02-02T06:00:00Z,25.7100,-81.2490,1.0,21.1,2 
ENP,ioos.station.NOAA.NDBC:WPLF1:1,2016-02-02T07:00:00Z,25.7100,-81.2490,1.0,21.1,2 
ENP,ioos.station.NOAA.NDBC:WPLF1:1,2016-02-02T08:00:00Z,25.7100,-81.2490,1.0,21.15,2 
ENP,ioos.station.NOAA.NDBC:WPLF1:1,2016-02-02T09:00:00Z,25.7100,-81.2490,1.0,21.23,2 
ENP,ioos.station.NOAA.NDBC:WPLF1:1,2016-02-02T10:00:00Z,25.7100,-81.2490,1.0,21.29,2 
ENP,ioos.station.NOAA.NDBC:WPLF1:1,2016-02-02T11:00:00Z,25.7100,-81.2490,1.0,21.31,2 
ENP,ioos.station.NOAA.NDBC:WPLF1:1,2016-02-02T12:00:00Z,25.7100,-81.2490,1.0,21.32,2 
ENP,ioos.station.NOAA.NDBC:WPLF1:1,2016-02-02T13:00:00Z,25.7100,-81.2490,1.0,21.32,2 
ENP,ioos.station.NOAA.NDBC:WPLF1:1,2016-02-02T14:00:00Z,25.7100,-81.2490,1.0,21.33,2 
ENP,ioos.station.NOAA.NDBC:WPLF1:1,2016-02-02T15:00:00Z,25.7100,-81.2490,1.0,21.35,2 
ENP,ioos.station.NOAA.NDBC:WPLF1:1,2016-02-02T16:00:00Z,25.7100,-81.2490,1.0,21.42,2 
ENP,ioos.station.NOAA.NDBC:WPLF1:1,2016-02-02T18:00:00Z,25.7100,-81.2490,1.0,21.84,2 
ENP,ioos.station.NOAA.NDBC:WPLF1:1,2016-02-02T19:00:00Z,25.7100,-81.2490,1.0,22.1,2 
ENP,ioos.station.NOAA.NDBC:WPLF1:1,2016-02-02T20:00:00Z,25.7100,-81.2490,1.0,22.31,2 
ENP,ioos.station.NOAA.NDBC:WPLF1:1,2016-02-02T21:00:00Z,25.7100,-81.2490,1.0,22.44,2 
ENP,ioos.station.NOAA.NDBC:WPLF1:1,2016-02-02T22:00:00Z,25.7100,-81.2490,1.0,22.49,2 
ENP,ioos.station.NOAA.NDBC:WPLF1:1,2016-02-02T23:00:00Z,25.7100,-81.2490,1.0,22.61,2 
ENP,ioos.station.NOAA.NDBC:WPLF1:1,2016-02-03T00:00:00Z,25.7100,-81.2490,1.0,22.67,2 
ENP,ioos.station.NOAA.NDBC:WPLF1:1,2016-02-03T01:00:00Z,25.7100,-81.2490,1.0,22.64,2 
ENP,ioos.station.NOAA.NDBC:WPLF1:1,2016-02-03T02:00:00Z,25.7100,-81.2490,1.0,22.42,2 
ENP,ioos.station.NOAA.NDBC:WPLF1:1,2016-02-03T03:00:00Z,25.7100,-81.2490,1.0,22.25,2 
ENP,ioos.station.NOAA.NDBC:WPLF1:1,2016-02-03T04:00:00Z,25.7100,-81.2490,1.0,22.15,2 
ENP,ioos.station.NOAA.NDBC:WPLF1:1,2016-02-03T05:00:00Z,25.7100,-81.2490,1.0,22.11,2 
ENP,ioos.station.NOAA.NDBC:WPLF1:1,2016-02-03T06:00:00Z,25.7100,-81.2490,1.0,22.18,2 
ENP,ioos.station.NOAA.NDBC:WPLF1:1,2016-02-03T07:00:00Z,25.7100,-81.2490,1.0,22.24,2 
ENP,ioos.station.NOAA.NDBC:WPLF1:1,2016-02-03T08:00:00Z,25.7100,-81.2490,1.0,22.32,2 
ENP,ioos.station.NOAA.NDBC:WPLF1:1,2016-02-03T09:00:00Z,25.7100,-81.2490,1.0,22.4,2 
ENP,ioos.station.NOAA.NDBC:WPLF1:1,2016-02-03T10:00:00Z,25.7100,-81.2490,1.0,22.52,2 
ENP,ioos.station.NOAA.NDBC:WPLF1:1,2016-02-03T11:00:00Z,25.7100,-81.2490,1.0,22.6,2 
ENP,ioos.station.NOAA.NDBC:WPLF1:1,2016-02-03T12:00:00Z,25.7100,-81.2490,1.0,22.61,2 
ENP,ioos.station.NOAA.NDBC:WPLF1:1,2016-02-03T13:00:00Z,25.7100,-81.2490,1.0,22.62,2 
ENP,ioos.station.NOAA.NDBC:WPLF1:1,2016-02-03T14:00:00Z,25.7100,-81.2490,1.0,22.65,2 
ENP,ioos.station.NOAA.NDBC:WPLF1:1,2016-02-03T15:00:00Z,25.7100,-81.2490,1.0,22.69,2 
ENP,ioos.station.NOAA.NDBC:WPLF1:1,2016-02-03T16:00:00Z,25.7100,-81.2490,1.0,22.79,2 
ENP,ioos.station.NOAA.NDBC:WPLF1:1,2016-02-03T17:00:00Z,25.7100,-81.2490,1.0,22.78,2 
ENP,ioos.station.NOAA.NDBC:WPLF1:1,2016-02-03T18:00:00Z,25.7100,-81.2490,1.0,22.63,2 
ENP,ioos.station.NOAA.NDBC:WPLF1:1,2016-02-03T19:00:00Z,25.7100,-81.2490,1.0,22.85,2 
ENP,ioos.station.NOAA.NDBC:WPLF1:1,2016-02-03T20:00:00Z,25.7100,-81.2490,1.0,23.28,2 
ENP,ioos.station.NOAA.NDBC:WPLF1:1,2016-02-03T21:00:00Z,25.7100,-81.2490,1.0,23.48,2 
ENP,ioos.station.NOAA.NDBC:WPLF1:1,2016-02-03T22:00:00Z,25.7100,-81.2490,1.0,23.65,2 
ENP,ioos.station.NOAA.NDBC:WPLF1:1,2016-02-03T23:00:00Z,25.7100,-81.2490,1.0,23.7,2 
ENP,ioos.station.NOAA.NDBC:WPLF1:1,2016-02-04T00:00:00Z,25.7100,-81.2490,1.0,23.76,2 
ENP,ioos.station.NOAA.NDBC:WPLF1:1,2016-02-04T01:00:00Z,25.7100,-81.2490,1.0,23.74,2 
ENP,ioos.station.NOAA.NDBC:WPLF1:1,2016-02-04T02:00:00Z,25.7100,-81.2490,1.0,23.53,2 
ENP,ioos.station.NOAA.NDBC:WPLF1:1,2016-02-04T03:00:00Z,25.7100,-81.2490,1.0,23.2,2 
ENP,ioos.station.NOAA.NDBC:WPLF1:1,2016-02-04T04:00:00Z,25.7100,-81.2490,1.0,23.14,2 
ENP,ioos.station.NOAA.NDBC:WPLF1:1,2016-02-04T05:00:00Z,25.7100,-81.2490,1.0,23.15,2 
ENP,ioos.station.NOAA.NDBC:WPLF1:1,2016-02-04T06:00:00Z,25.7100,-81.2490,1.0,23.13,2 
ENP,ioos.station.NOAA.NDBC:WPLF1:1,2016-02-04T07:00:00Z,25.7100,-81.2490,1.0,22.98,2 
ENP,ioos.station.NOAA.NDBC:WPLF1:1,2016-02-04T08:00:00Z,25.7100,-81.2490,1.0,22.94,2 
ENP,ioos.station.NOAA.NDBC:WPLF1:1,2016-02-04T09:00:00Z,25.7100,-81.2490,1.0,23.01,2 
ENP,ioos.station.NOAA.NDBC:WPLF1:1,2016-02-04T10:00:00Z,25.7100,-81.2490,1.0,23.13,2 
ENP,ioos.station.NOAA.NDBC:WPLF1:1,2016-02-04T11:00:00Z,25.7100,-81.2490,1.0,23.21,2 
ENP,ioos.station.NOAA.NDBC:WPLF1:1,2016-02-04T12:00:00Z,25.7100,-81.2490,1.0,23.24,2 
ENP,ioos.station.NOAA.NDBC:WPLF1:1,2016-02-04T13:00:00Z,25.7100,-81.2490,1.0,23.2,2 
ENP,ioos.station.NOAA.NDBC:WPLF1:1,2016-02-04T14:00:00Z,25.7100,-81.2490,1.0,23.21,2 
ENP,ioos.station.NOAA.NDBC:WPLF1:1,2016-02-04T15:00:00Z,25.7100,-81.2490,1.0,23.29,2 
ENP,ioos.station.NOAA.NDBC:WPLF1:1,2016-02-04T16:00:00Z,25.7100,-81.2490,1.0,23.39,2 
ENP,ioos.station.NOAA.NDBC:WPLF1:1,2016-02-04T17:00:00Z,25.7100,-81.2490,1.0,23.53,2 
ENP,ioos.station.NOAA.NDBC:WPLF1:1,2016-02-04T18:00:00Z,25.7100,-81.2490,1.0,23.62,2 
ENP,ioos.station.NOAA.NDBC:WPLF1:1,2016-02-04T19:00:00Z,25.7100,-81.2490,1.0,23.63,2 
ENP,ioos.station.NOAA.NDBC:WPLF1:1,2016-02-04T20:00:00Z,25.7100,-81.2490,1.0,23.8,2 
ENP,ioos.station.NOAA.NDBC:WPLF1:1,2016-02-04T21:00:00Z,25.7100,-81.2490,1.0,24.16,2 
ENP,ioos.station.NOAA.NDBC:WPLF1:1,2016-02-04T22:00:00Z,25.7100,-81.2490,1.0,24.23,2 
ENP,ioos.station.NOAA.NDBC:WPLF1:1,2016-02-04T23:00:00Z,25.7100,-81.2490,1.0,24.26,2 
ENP,ioos.station.NOAA.NDBC:WPLF1:1,2016-02-05T00:00:00Z,25.7100,-81.2490,1.0,24.26,2 
ENP,ioos.station.NOAA.NDBC:WPLF1:1,2016-02-05T01:00:00Z,25.7100,-81.2490,1.0,24.26,2 
ENP,ioos.station.NOAA.NDBC:WPLF1:1,2016-02-05T02:00:00Z,25.7100,-81.2490,1.0,24.23,2 
ENP,ioos.station.NOAA.NDBC:WPLF1:1,2016-02-05T03:00:00Z,25.7100,-81.2490,1.0,24.19,2 
ENP,ioos.station.NOAA.NDBC:WPLF1:1,2016-02-05T04:00:00Z,25.7100,-81.2490,1.0,24.03,2 
ENP,ioos.station.NOAA.NDBC:WPLF1:1,2016-02-05T05:00:00Z,25.7100,-81.2490,1.0,23.94,2 
ENP,ioos.station.NOAA.NDBC:WPLF1:1,2016-02-05T06:00:00Z,25.7100,-81.2490,1.0,23.95,2 
ENP,ioos.station.NOAA.NDBC:WPLF1:1,2016-02-05T07:00:00Z,25.7100,-81.2490,1.0,23.93,2 
ENP,ioos.station.NOAA.NDBC:WPLF1:1,2016-02-05T08:00:00Z,25.7100,-81.2490,1.0,23.74,2 
ENP,ioos.station.NOAA.NDBC:WPLF1:1,2016-02-05T09:00:00Z,25.7100,-81.2490,1.0,23.57,2 
ENP,ioos.station.NOAA.NDBC:WPLF1:1,2016-02-05T11:00:00Z,25.7100,-81.2490,1.0,23.27,2 
ENP,ioos.station.NOAA.NDBC:WPLF1:1,2016-02-05T12:00:00Z,25.7100,-81.2490,1.0,23.08,2 
ENP,ioos.station.NOAA.NDBC:WPLF1:1,2016-02-05T13:00:00Z,25.7100,-81.2490,1.0,22.79,2 
ENP,ioos.station.NOAA.NDBC:WPLF1:1,2016-02-05T14:00:00Z,25.7100,-81.2490,1.0,22.5,2 
ENP,ioos.station.NOAA.NDBC:WPLF1:1,2016-02-05T15:00:00Z,25.7100,-81.2490,1.0,22.26,2 
ENP,ioos.station.NOAA.NDBC:WPLF1:1,2016-02-05T16:00:00Z,25.7100,-81.2490,1.0,22.12,2 
ENP,ioos.station.NOAA.NDBC:WPLF1:1,2016-02-05T17:00:00Z,25.7100,-81.2490,1.0,22.09,2 
ENP,ioos.station.NOAA.NDBC:WPLF1:1,2016-02-05T18:00:00Z,25.7100,-81.2490,1.0,22.15,2 
ENP,ioos.station.NOAA.NDBC:WPLF1:1,2016-02-05T19:00:00Z,25.7100,-81.2490,1.0,22.2,2 
ENP,ioos.station.NOAA.NDBC:WPLF1:1,2016-02-05T20:00:00Z,25.7100,-81.2490,1.0,22.19,2 
ENP,ioos.station.NOAA.NDBC:WPLF1:1,2016-02-05T21:00:00Z,25.7100,-81.2490,1.0,22.17,2 
ENP,ioos.station.NOAA.NDBC:WPLF1:1,2016-02-05T22:00:00Z,25.7100,-81.2490,1.0,22.11,2 
ENP,ioos.station.NOAA.NDBC:WPLF1:1,2016-02-06T00:00:00Z,25.7100,-81.2490,1.0,21.77,2 
ENP,ioos.station.NOAA.NDBC:WPLF1:1,2016-02-06T01:00:00Z,25.7100,-81.2490,1.0,21.67,2 
ENP,ioos.station.NOAA.NDBC:WPLF1:1,2016-02-06T02:00:00Z,25.7100,-81.2490,1.0,21.56,2 
ENP,ioos.station.NOAA.NDBC:WPLF1:1,2016-02-06T03:00:00Z,25.7100,-81.2490,1.0,21.46,2 
ENP,ioos.station.NOAA.NDBC:WPLF1:1,2016-02-06T04:00:00Z,25.7100,-81.2490,1.0,21.38,2 
ENP,ioos.station.NOAA.NDBC:WPLF1:1,2016-02-06T05:00:00Z,25.7100,-81.2490,1.0,21.32,2 
ENP,ioos.station.NOAA.NDBC:WPLF1:1,2016-02-06T06:00:00Z,25.7100,-81.2490,1.0,21.29,2 
ENP,ioos.station.NOAA.NDBC:WPLF1:1,2016-02-06T07:00:00Z,25.7100,-81.2490,1.0,21.08,2 
ENP,ioos.station.NOAA.NDBC:WPLF1:1,2016-02-06T08:00:00Z,25.7100,-81.2490,1.0,20.8,2 
ENP,ioos.station.NOAA.NDBC:WPLF1:1,2016-02-06T09:00:00Z,25.7100,-81.2490,1.0,20.68,2 
ENP,ioos.station.NOAA.NDBC:WPLF1:1,2016-02-06T10:00:00Z,25.7100,-81.2490,1.0,20.65,2 
ENP,ioos.station.NOAA.NDBC:WPLF1:1,2016-02-06T11:00:00Z,25.7100,-81.2490,1.0,20.59,2 
ENP,ioos.station.NOAA.NDBC:WPLF1:1,2016-02-06T12:00:00Z,25.7100,-81.2490,1.0,20.46,2 
ENP,ioos.station.NOAA.NDBC:WPLF1:1,2016-02-06T13:00:00Z,25.7100,-81.2490,1.0,20.26,2 
ENP,ioos.station.NOAA.NDBC:WPLF1:1,2016-02-06T14:00:00Z,25.7100,-81.2490,1.0,20.03,2 
ENP,ioos.station.NOAA.NDBC:WPLF1:1,2016-02-06T15:00:00Z,25.7100,-81.2490,1.0,19.92,2 
ENP,ioos.station.NOAA.NDBC:WPLF1:1,2016-02-06T16:00:00Z,25.7100,-81.2490,1.0,19.97,2 
ENP,ioos.station.NOAA.NDBC:WPLF1:1,2016-02-06T17:00:00Z,25.7100,-81.2490,1.0,20.11,2 
ENP,ioos.station.NOAA.NDBC:WPLF1:1,2016-02-06T18:00:00Z,25.7100,-81.2490,1.0,20.35,2 
ENP,ioos.station.NOAA.NDBC:WPLF1:1,2016-02-06T19:00:00Z,25.7100,-81.2490,1.0,20.75,2 
ENP,ioos.station.NOAA.NDBC:WPLF1:1,2016-02-06T20:00:00Z,25.7100,-81.2490,1.0,20.93,2 
ENP,ioos.station.NOAA.NDBC:WPLF1:1,2016-02-06T21:00:00Z,25.7100,-81.2490,1.0,20.9,2 
ENP,ioos.station.NOAA.NDBC:WPLF1:1,2016-02-06T22:00:00Z,25.7100,-81.2490,1.0,20.87,2 
ENP,ioos.station.NOAA.NDBC:WPLF1:1,2016-02-06T23:00:00Z,25.7100,-81.2490,1.0,20.87,2 
ENP,ioos.station.NOAA.NDBC:WPLF1:1,2016-02-07T00:00:00Z,25.7100,-81.2490,1.0,20.88,2 
ENP,ioos.station.NOAA.NDBC:WPLF1:1,2016-02-07T01:00:00Z,25.7100,-81.2490,1.0,20.83,2 
ENP,ioos.station.NOAA.NDBC:WPLF1:1,2016-02-07T02:00:00Z,25.7100,-81.2490,1.0,20.77,2 
ENP,ioos.station.NOAA.NDBC:WPLF1:1,2016-02-07T03:00:00Z,25.7100,-81.2490,1.0,20.66,2 
ENP,ioos.station.NOAA.NDBC:WPLF1:1,2016-02-07T04:00:00Z,25.7100,-81.2490,1.0,20.58,2 
ENP,ioos.station.NOAA.NDBC:WPLF1:1,2016-02-07T05:00:00Z,25.7100,-81.2490,1.0,20.54,2 
ENP,ioos.station.NOAA.NDBC:WPLF1:1,2016-02-07T06:00:00Z,25.7100,-81.2490,1.0,20.55,2 
ENP,ioos.station.NOAA.NDBC:WPLF1:1,2016-02-07T07:00:00Z,25.7100,-81.2490,1.0,20.34,2 
ENP,ioos.station.NOAA.NDBC:WPLF1:1,2016-02-07T08:00:00Z,25.7100,-81.2490,1.0,20.11,2 
ENP,ioos.station.NOAA.NDBC:WPLF1:1,2016-02-07T09:00:00Z,25.7100,-81.2490,1.0,19.98,2 
ENP,ioos.station.NOAA.NDBC:WPLF1:1,2016-02-07T10:00:00Z,25.7100,-81.2490,1.0,19.94,2 
ENP,ioos.station.NOAA.NDBC:WPLF1:1,2016-02-07T12:00:00Z,25.7100,-81.2490,1.0,19.77,2 
ENP,ioos.station.NOAA.NDBC:WPLF1:1,2016-02-07T13:00:00Z,25.7100,-81.2490,1.0,19.57,2 
ENP,ioos.station.NOAA.NDBC:WPLF1:1,2016-02-07T14:00:00Z,25.7100,-81.2490,1.0,19.37,2 
ENP,ioos.station.NOAA.NDBC:WPLF1:1,2016-02-07T15:00:00Z,25.7100,-81.2490,1.0,19.15,2 
ENP,ioos.station.NOAA.NDBC:WPLF1:1,2016-02-07T16:00:00Z,25.7100,-81.2490,1.0,19.01,2 
ENP,ioos.station.NOAA.NDBC:WPLF1:1,2016-02-07T17:00:00Z,25.7100,-81.2490,1.0,18.97,2 
ENP,ioos.station.NOAA.NDBC:WPLF1:1,2016-02-07T18:00:00Z,25.7100,-81.2490,1.0,19.05,2 
ENP,ioos.station.NOAA.NDBC:WPLF1:1,2016-02-07T19:00:00Z,25.7100,-81.2490,1.0,19.25,2 
ENP,ioos.station.NOAA.NDBC:WPLF1:1,2016-02-07T20:00:00Z,25.7100,-81.2490,1.0,19.4,2 
ENP,ioos.station.NOAA.NDBC:WPLF1:1,2016-02-07T21:00:00Z,25.7100,-81.2490,1.0,19.55,2 
ENP,ioos.station.NOAA.NDBC:WPLF1:1,2016-02-07T22:00:00Z,25.7100,-81.2490,1.0,19.73,2 
ENP,ioos.station.NOAA.NDBC:WPLF1:1,2016-02-07T23:00:00Z,25.7100,-81.2490,1.0,19.61,2 
ENP,ioos.station.NOAA.NDBC:WPLF1:1,2016-02-08T00:00:00Z,25.7100,-81.2490,1.0,19.47,2 
ENP,ioos.station.NOAA.NDBC:WPLF1:1,2016-02-08T01:00:00Z,25.7100,-81.2490,1.0,19.25,2 
ENP,ioos.station.NOAA.NDBC:WPLF1:1,2016-02-08T02:00:00Z,25.7100,-81.2490,1.0,19.06,2 
ENP,ioos.station.NOAA.NDBC:WPLF1:1,2016-02-08T03:00:00Z,25.7100,-81.2490,1.0,18.93,2 
ENP,ioos.station.NOAA.NDBC:WPLF1:1,2016-02-08T04:00:00Z,25.7100,-81.2490,1.0,18.8,2 
ENP,ioos.station.NOAA.NDBC:WPLF1:1,2016-02-08T05:00:00Z,25.7100,-81.2490,1.0,18.68,2 
ENP,ioos.station.NOAA.NDBC:WPLF1:1,2016-02-08T06:00:00Z,25.7100,-81.2490,1.0,18.66,2 
ENP,ioos.station.NOAA.NDBC:WPLF1:1,2016-02-08T07:00:00Z,25.7100,-81.2490,1.0,18.4,2 
ENP,ioos.station.NOAA.NDBC:WPLF1:1,2016-02-08T08:00:00Z,25.7100,-81.2490,1.0,18.08,2 
ENP,ioos.station.NOAA.NDBC:WPLF1:1,2016-02-08T09:00:00Z,25.7100,-81.2490,1.0,17.68,2 
ENP,ioos.station.NOAA.NDBC:WPLF1:1,2016-02-08T10:00:00Z,25.7100,-81.2490,1.0,17.49,2 
ENP,ioos.station.NOAA.NDBC:WPLF1:1,2016-02-08T11:00:00Z,25.7100,-81.2490,1.0,17.49,2 
ENP,ioos.station.NOAA.NDBC:WPLF1:1,2016-02-08T12:00:00Z,25.7100,-81.2490,1.0,17.57,2 
ENP,ioos.station.NOAA.NDBC:WPLF1:1,2016-02-08T13:00:00Z,25.7100,-81.2490,1.0,17.55,2 
ENP,ioos.station.NOAA.NDBC:WPLF1:1,2016-02-08T14:00:00Z,25.7100,-81.2490,1.0,17.48,2 
ENP,ioos.station.NOAA.NDBC:WPLF1:1,2016-02-08T15:00:00Z,25.7100,-81.2490,1.0,17.44,2 
ENP,ioos.station.NOAA.NDBC:WPLF1:1,2016-02-08T16:00:00Z,25.7100,-81.2490,1.0,17.41,2 
ENP,ioos.station.NOAA.NDBC:WPLF1:1,2016-02-08T17:00:00Z,25.7100,-81.2490,1.0,17.45,2 
ENP,ioos.station.NOAA.NDBC:WPLF1:1,2016-02-08T18:00:00Z,25.7100,-81.2490,1.0,17.6,2 
ENP,ioos.station.NOAA.NDBC:WPLF1:1,2016-02-08T19:00:00Z,25.7100,-81.2490,1.0,17.78,2 
ENP,ioos.station.NOAA.NDBC:WPLF1:1,2016-02-08T20:00:00Z,25.7100,-81.2490,1.0,18.03,2 
ENP,ioos.station.NOAA.NDBC:WPLF1:1,2016-02-08T21:00:00Z,25.7100,-81.2490,1.0,18.43,2 
ENP,ioos.station.NOAA.NDBC:WPLF1:1,2016-02-08T22:00:00Z,25.7100,-81.2490,1.0,18.38,2 
ENP,ioos.station.NOAA.NDBC:WPLF1:1,2016-02-08T23:00:00Z,25.7100,-81.2490,1.0,18.37,2 
ENP,ioos.station.NOAA.NDBC:WPLF1:1,2016-02-09T00:00:00Z,25.7100,-81.2490,1.0,18.42,2 
ENP,ioos.station.NOAA.NDBC:WPLF1:1,2016-02-09T01:00:00Z,25.7100,-81.2490,1.0,18.42,2 
ENP,ioos.station.NOAA.NDBC:WPLF1:1,2016-02-09T02:00:00Z,25.7100,-81.2490,1.0,18.33,2 
ENP,ioos.station.NOAA.NDBC:WPLF1:1,2016-02-09T03:00:00Z,25.7100,-81.2490,1.0,18.23,2 
ENP,ioos.station.NOAA.NDBC:WPLF1:1,2016-02-09T04:00:00Z,25.7100,-81.2490,1.0,18.17,2 
ENP,ioos.station.NOAA.NDBC:WPLF1:1,2016-02-09T05:00:00Z,25.7100,-81.2490,1.0,18.15,2 
ENP,ioos.station.NOAA.NDBC:WPLF1:1,2016-02-09T06:00:00Z,25.7100,-81.2490,1.0,18.12,2 
ENP,ioos.station.NOAA.NDBC:WPLF1:1,2016-02-09T07:00:00Z,25.7100,-81.2490,1.0,17.99,2 
ENP,ioos.station.NOAA.NDBC:WPLF1:1,2016-02-09T08:00:00Z,25.7100,-81.2490,1.0,17.75,2 
ENP,ioos.station.NOAA.NDBC:WPLF1:1,2016-02-09T09:00:00Z,25.7100,-81.2490,1.0,17.63,2 
ENP,ioos.station.NOAA.NDBC:WPLF1:1,2016-02-09T10:00:00Z,25.7100,-81.2490,1.0,17.55,2 
ENP,ioos.station.NOAA.NDBC:WPLF1:1,2016-02-09T11:00:00Z,25.7100,-81.2490,1.0,17.47,2 
ENP,ioos.station.NOAA.NDBC:WPLF1:1,2016-02-09T12:00:00Z,25.7100,-81.2490,1.0,17.39,2 
ENP,ioos.station.NOAA.NDBC:WPLF1:1,2016-02-09T13:00:00Z,25.7100,-81.2490,1.0,17.29,2 
ENP,ioos.station.NOAA.NDBC:WPLF1:1,2016-02-09T14:00:00Z,25.7100,-81.2490,1.0,17.3,2 
ENP,ioos.station.NOAA.NDBC:WPLF1:1,2016-02-09T15:00:00Z,25.7100,-81.2490,1.0,17.41,2 
ENP,ioos.station.NOAA.NDBC:WPLF1:1,2016-02-09T16:00:00Z,25.7100,-81.2490,1.0,17.54,2 
ENP,ioos.station.NOAA.NDBC:WPLF1:1,2016-02-09T17:00:00Z,25.7100,-81.2490,1.0,17.62,2 
ENP,ioos.station.NOAA.NDBC:WPLF1:1,2016-02-09T18:00:00Z,25.7100,-81.2490,1.0,17.73,2 
ENP,ioos.station.NOAA.NDBC:WPLF1:1,2016-02-09T19:00:00Z,25.7100,-81.2490,1.0,17.84,2 
ENP,ioos.station.NOAA.NDBC:WPLF1:1,2016-02-09T20:00:00Z,25.7100,-81.2490,1.0,17.98,2 
ENP,ioos.station.NOAA.NDBC:WPLF1:1,2016-02-09T21:00:00Z,25.7100,-81.2490,1.0,18.15,2 
ENP,ioos.station.NOAA.NDBC:WPLF1:1,2016-02-09T22:00:00Z,25.7100,-81.2490,1.0,18.21,2 
ENP,ioos.station.NOAA.NDBC:WPLF1:1,2016-02-09T23:00:00Z,25.7100,-81.2490,1.0,18.2,2 
ENP,ioos.station.NOAA.NDBC:WPLF1:1,2016-02-10T00:00:00Z,25.7100,-81.2490,1.0,18.07,2 
ENP,ioos.station.NOAA.NDBC:WPLF1:1,2016-02-10T01:00:00Z,25.7100,-81.2490,1.0,17.97,2 
ENP,ioos.station.NOAA.NDBC:WPLF1:1,2016-02-10T02:00:00Z,25.7100,-81.2490,1.0,17.91,2 
ENP,ioos.station.NOAA.NDBC:WPLF1:1,2016-02-10T04:00:00Z,25.7100,-81.2490,1.0,17.78,2 
ENP,ioos.station.NOAA.NDBC:WPLF1:1,2016-02-10T05:00:00Z,25.7100,-81.2490,1.0,17.7,2 
ENP,ioos.station.NOAA.NDBC:WPLF1:1,2016-02-10T06:00:00Z,25.7100,-81.2490,1.0,17.66,2 
ENP,ioos.station.NOAA.NDBC:WPLF1:1,2016-02-10T07:00:00Z,25.7100,-81.2490,1.0,17.66,2 
ENP,ioos.station.NOAA.NDBC:WPLF1:1,2016-02-10T08:00:00Z,25.7100,-81.2490,1.0,17.65,2 
ENP,ioos.station.NOAA.NDBC:WPLF1:1,2016-02-10T09:00:00Z,25.7100,-81.2490,1.0,17.5,2 
ENP,ioos.station.NOAA.NDBC:WPLF1:1,2016-02-10T10:00:00Z,25.7100,-81.2490,1.0,17.41,2 
ENP,ioos.station.NOAA.NDBC:WPLF1:1,2016-02-10T11:00:00Z,25.7100,-81.2490,1.0,17.25,2 
ENP,ioos.station.NOAA.NDBC:WPLF1:1,2016-02-10T12:00:00Z,25.7100,-81.2490,1.0,17.2,2 
ENP,ioos.station.NOAA.NDBC:WPLF1:1,2016-02-10T13:00:00Z,25.7100,-81.2490,1.0,17.2,2 
ENP,ioos.station.NOAA.NDBC:WPLF1:1,2016-02-10T14:00:00Z,25.7100,-81.2490,1.0,17.23,2 
ENP,ioos.station.NOAA.NDBC:WPLF1:1,2016-02-10T15:00:00Z,25.7100,-81.2490,1.0,17.2,2 
ENP,ioos.station.NOAA.NDBC:WPLF1:1,2016-02-10T16:00:00Z,25.7100,-81.2490,1.0,17.16,2 
ENP,ioos.station.NOAA.NDBC:WPLF1:1,2016-02-10T17:00:00Z,25.7100,-81.2490,1.0,17.25,2 
ENP,ioos.station.NOAA.NDBC:WPLF1:1,2016-02-10T18:00:00Z,25.7100,-81.2490,1.0,17.41,2 
ENP,ioos.station.NOAA.NDBC:WPLF1:1,2016-02-10T19:00:00Z,25.7100,-81.2490,1.0,17.56,2 
ENP,ioos.station.NOAA.NDBC:WPLF1:1,2016-02-10T20:00:00Z,25.7100,-81.2490,1.0,17.68,2 
ENP,ioos.station.NOAA.NDBC:WPLF1:1,2016-02-10T21:00:00Z,25.7100,-81.2490,1.0,17.81,2 
ENP,ioos.station.NOAA.NDBC:WPLF1:1,2016-02-11T00:00:00Z,25.7100,-81.2490,1.0,18.14,2 
ENP,ioos.station.NOAA.NDBC:WPLF1:1,2016-02-11T01:00:00Z,25.7100,-81.2490,1.0,18.0,2 
ENP,ioos.station.NOAA.NDBC:WPLF1:1,2016-02-11T02:00:00Z,25.7100,-81.2490,1.0,17.82,2 
ENP,ioos.station.NOAA.NDBC:WPLF1:1,2016-02-11T03:00:00Z,25.7100,-81.2490,1.0,17.7,2 
ENP,ioos.station.NOAA.NDBC:WPLF1:1,2016-02-11T04:00:00Z,25.7100,-81.2490,1.0,17.62,2 
ENP,ioos.station.NOAA.NDBC:WPLF1:1,2016-02-11T05:00:00Z,25.7100,-81.2490,1.0,17.51,2 
ENP,ioos.station.NOAA.NDBC:WPLF1:1,2016-02-11T06:00:00Z,25.7100,-81.2490,1.0,17.4,2 
ENP,ioos.station.NOAA.NDBC:WPLF1:1,2016-02-11T07:00:00Z,25.7100,-81.2490,1.0,17.3,2 
ENP,ioos.station.NOAA.NDBC:WPLF1:1,2016-02-11T08:00:00Z,25.7100,-81.2490,1.0,17.24,2 
ENP,ioos.station.NOAA.NDBC:WPLF1:1,2016-02-11T09:00:00Z,25.7100,-81.2490,1.0,17.19,2 
ENP,ioos.station.NOAA.NDBC:WPLF1:1,2016-02-11T10:00:00Z,25.7100,-81.2490,1.0,17.13,2 
ENP,ioos.station.NOAA.NDBC:WPLF1:1,2016-02-11T11:00:00Z,25.7100,-81.2490,1.0,16.86,2 
ENP,ioos.station.NOAA.NDBC:WPLF1:1,2016-02-11T12:00:00Z,25.7100,-81.2490,1.0,16.82,2 
ENP,ioos.station.NOAA.NDBC:WPLF1:1,2016-02-11T13:00:00Z,25.7100,-81.2490,1.0,16.8,2 
ENP,ioos.station.NOAA.NDBC:WPLF1:1,2016-02-11T14:00:00Z,25.7100,-81.2490,1.0,16.79,2 
ENP,ioos.station.NOAA.NDBC:WPLF1:1,2016-02-11T15:00:00Z,25.7100,-81.2490,1.0,16.74,2 
ENP,ioos.station.NOAA.NDBC:WPLF1:1,2016-02-11T16:00:00Z,25.7100,-81.2490,1.0,16.67,2 
ENP,ioos.station.NOAA.NDBC:WPLF1:1,2016-02-11T17:00:00Z,25.7100,-81.2490,1.0,16.74,2 
ENP,ioos.station.NOAA.NDBC:WPLF1:1,2016-02-11T18:00:00Z,25.7100,-81.2490,1.0,16.89,2 
ENP,ioos.station.NOAA.NDBC:WPLF1:1,2016-02-11T19:00:00Z,25.7100,-81.2490,1.0,17.07,2 
ENP,ioos.station.NOAA.NDBC:WPLF1:1,2016-02-11T21:00:00Z,25.7100,-81.2490,1.0,17.31,2 
ENP,ioos.station.NOAA.NDBC:WPLF1:1,2016-02-11T22:00:00Z,25.7100,-81.2490,1.0,17.42,2 
ENP,ioos.station.NOAA.NDBC:WPLF1:1,2016-02-11T23:00:00Z,25.7100,-81.2490,1.0,17.49,2 
ENP,ioos.station.NOAA.NDBC:WPLF1:1,2016-02-12T00:00:00Z,25.7100,-81.2490,1.0,17.98,2 
ENP,ioos.station.NOAA.NDBC:WPLF1:1,2016-02-12T01:00:00Z,25.7100,-81.2490,1.0,17.96,2 
ENP,ioos.station.NOAA.NDBC:WPLF1:1,2016-02-12T02:00:00Z,25.7100,-81.2490,1.0,17.83,2 
ENP,ioos.station.NOAA.NDBC:WPLF1:1,2016-02-12T03:00:00Z,25.7100,-81.2490,1.0,17.57,2 
ENP,ioos.station.NOAA.NDBC:WPLF1:1,2016-02-12T04:00:00Z,25.7100,-81.2490,1.0,17.3,2 
ENP,ioos.station.NOAA.NDBC:WPLF1:1,2016-02-12T05:00:00Z,25.7100,-81.2490,1.0,17.13,2 
ENP,ioos.station.NOAA.NDBC:WPLF1:1,2016-02-12T07:00:00Z,25.7100,-81.2490,1.0,16.88,2 
ENP,ioos.station.NOAA.NDBC:WPLF1:1,2016-02-12T08:00:00Z,25.7100,-81.2490,1.0,16.85,2 
ENP,ioos.station.NOAA.NDBC:WPLF1:1,2016-02-12T09:00:00Z,25.7100,-81.2490,1.0,16.82,2 
ENP,ioos.station.NOAA.NDBC:WPLF1:1,2016-02-12T10:00:00Z,25.7100,-81.2490,1.0,16.81,2 
ENP,ioos.station.NOAA.NDBC:WPLF1:1,2016-02-12T11:00:00Z,25.7100,-81.2490,1.0,16.94,2 
ENP,ioos.station.NOAA.NDBC:WPLF1:1,2016-02-12T12:00:00Z,25.7100,-81.2490,1.0,16.97,2 
ENP,ioos.station.NOAA.NDBC:WPLF1:1,2016-02-12T13:00:00Z,25.7100,-81.2490,1.0,16.8,2 
ENP,ioos.station.NOAA.NDBC:WPLF1:1,2016-02-12T14:00:00Z,25.7100,-81.2490,1.0,16.76,2 
ENP,ioos.station.NOAA.NDBC:WPLF1:1,2016-02-12T15:00:00Z,25.7100,-81.2490,1.0,16.79,2 
ENP,ioos.station.NOAA.NDBC:WPLF1:1,2016-02-12T17:00:00Z,25.7100,-81.2490,1.0,16.98,2 
ENP,ioos.station.NOAA.NDBC:WPLF1:1,2016-02-12T18:00:00Z,25.7100,-81.2490,1.0,17.2,2 
ENP,ioos.station.NOAA.NDBC:WPLF1:1,2016-02-12T19:00:00Z,25.7100,-81.2490,1.0,17.45,2 
ENP,ioos.station.NOAA.NDBC:WPLF1:1,2016-02-12T20:00:00Z,25.7100,-81.2490,1.0,17.73,2 
ENP,ioos.station.NOAA.NDBC:WPLF1:1,2016-02-12T21:00:00Z,25.7100,-81.2490,1.0,17.95,2 
ENP,ioos.station.NOAA.NDBC:WPLF1:1,2016-02-12T22:00:00Z,25.7100,-81.2490,1.0,18.04,2 
ENP,ioos.station.NOAA.NDBC:WPLF1:1,2016-02-12T23:00:00Z,25.7100,-81.2490,1.0,18.38,2 
ENP,ioos.station.NOAA.NDBC:WPLF1:1,2016-02-13T00:00:00Z,25.7100,-81.2490,1.0,18.91,2 
ENP,ioos.station.NOAA.NDBC:WPLF1:1,2016-02-13T01:00:00Z,25.7100,-81.2490,1.0,19.03,2 
ENP,ioos.station.NOAA.NDBC:WPLF1:1,2016-02-13T02:00:00Z,25.7100,-81.2490,1.0,18.85,2 
ENP,ioos.station.NOAA.NDBC:WPLF1:1,2016-02-13T04:00:00Z,25.7100,-81.2490,1.0,18.29,2 
ENP,ioos.station.NOAA.NDBC:WPLF1:1,2016-02-13T05:00:00Z,25.7100,-81.2490,1.0,18.08,2 
ENP,ioos.station.NOAA.NDBC:WPLF1:1,2016-02-13T07:00:00Z,25.7100,-81.2490,1.0,17.89,2 
ENP,ioos.station.NOAA.NDBC:WPLF1:1,2016-02-13T08:00:00Z,25.7100,-81.2490,1.0,17.8,2 
ENP,ioos.station.NOAA.NDBC:WPLF1:1,2016-02-13T09:00:00Z,25.7100,-81.2490,1.0,17.78,2 
ENP,ioos.station.NOAA.NDBC:WPLF1:1,2016-02-13T10:00:00Z,25.7100,-81.2490,1.0,17.73,2 
ENP,ioos.station.NOAA.NDBC:WPLF1:1,2016-02-13T11:00:00Z,25.7100,-81.2490,1.0,17.69,2 
ENP,ioos.station.NOAA.NDBC:WPLF1:1,2016-02-13T12:00:00Z,25.7100,-81.2490,1.0,17.8,2 
ENP,ioos.station.NOAA.NDBC:WPLF1:1,2016-02-13T13:00:00Z,25.7100,-81.2490,1.0,17.83,2 
ENP,ioos.station.NOAA.NDBC:WPLF1:1,2016-02-13T14:00:00Z,25.7100,-81.2490,1.0,17.74,2 
ENP,ioos.station.NOAA.NDBC:WPLF1:1,2016-02-13T15:00:00Z,25.7100,-81.2490,1.0,17.78,2 
ENP,ioos.station.NOAA.NDBC:WPLF1:1,2016-02-13T16:00:00Z,25.7100,-81.2490,1.0,17.91,2 
ENP,ioos.station.NOAA.NDBC:WPLF1:1,2016-02-13T17:00:00Z,25.7100,-81.2490,1.0,18.09,2 